Location: Newark
(41.0400°S, 62.7845°W)
Time: 16:40:52
(UTC+00:00)

Vanguard 2 Rocket - Pass Details

Date: 29 November 2021
Orbit: 553 x 3325 km, 32.9° (Epoch: 23 January)

Event Time Altitude Azimuth Distance (km) Brightness Sun altitude
Rises 10:53:58 0° 302° (WNW) 6,893 10.9 24.0°
Reaches altitude 10° 10:59:18 10° 306° (NW) 5,550 10.5 25.0°
Maximum altitude 11:13:27 46° 12° (NNE) 2,422 9.5 27.6°
Drops below altitude 10° 11:21:50 10° 82° (E) 3,361 11.3 29.2°
Sets 11:24:16 0° 88° (E) 4,047 11.4 29.7°
